Starlink 3568

operational
NORAD ID: 51856 Int'l Des: 2022-022 Owner: SPXS Country: US Constellation: starlink
LEOCIRCULAR

Über Starlink 3568

Beschreibung wird geladen...

Live-Position

3D-Globus wird geladen...

Nächste Überflüge

Höhenverlauf

Altitude vs Time

uPlot chart will show altitude changes over time

Zweizeiliger Elementsatz

1 51856U 22022E 25350.45003878 .00001251 00000-0 96670-4 0 9994
2 51856 53.2181 32.8082 0001338 86.5284 273.5862 15.08845500210482
Epoch: 16. Dez. 2025 • Age: 24 hours

Aktueller Status

Höhe 545.2 km
Geschwindigkeit 7.60 km/s
Subsatellitenpunkt 52.66°N, 121.34°W
Startdatum 3. März 2022
Alter 3.7 years
Typ internet

Technische Details

Klassifizierung Payload
Masse 297.00 kg
Trockenmasse 275.00 kg
Gesamtmasse 297.00 kg
Länge 0.20 m
Durchmesser 2.80 m
Spannweite 9.00 m
Form Box + pan
Hersteller SPXS
Bus-Typ Starlink
Phasenstatus In Orbit
Besitzer/Staat SPXS/US

Große Konstellationen

Loading constellations...